Location: Kernascl�den
(48.0062°N, 3.3198°W)
Time: 07:12:08
(UTC+00:00)

Cosmos 1844 Rocket - Visible Passes

Search period start: 11 May 2021 00:00
Search period end: 21 May 2021 00:00
Orbit: 825 x 844 km, 71.0° (Epoch: 10 May)

Date Brightness Start Highest point End Pass type
(mag) Time Alt. Az. Time Alt. Az. Time Alt. Az.
11 May 5.5 03:46:16 10° N 03:50:46 24° NE 03:55:14 10° E visible
11 May 3.0 20:22:52 10° SSW 20:28:25 75° WNW 20:34:03 10° NNE visible
11 May 5.6 22:09:38 10° W 22:13:20 18° NW 22:17:03 10° N visible
12 May 5.5 03:29:06 10° N 03:33:27 22° NE 03:37:48 10° E visible
12 May 5.6 21:52:08 10° W 21:56:01 19° NW 21:59:55 10° N visible
13 May 5.6 03:11:57 10° N 03:16:09 21° NE 03:20:21 10° E visible
13 May 5.5 21:34:39 10° W 21:38:41 20° NW 21:42:45 10° N visible
14 May 5.6 02:54:47 10° N 02:58:50 20° NE 03:02:53 10° E visible
14 May 5.5 21:17:12 10° W 21:21:23 21° NW 21:25:36 10° N visible
15 May 5.7 02:37:37 10° N 02:41:30 19° NE 02:45:24 10° E visible
15 May 5.5 20:59:44 10° W 21:04:04 22° NW 21:08:26 10° N visible
16 May 5.7 02:20:28 10° N 02:24:11 18° NE 02:27:55 10° E visible
16 May 5.4 20:42:18 10° W 20:46:46 24° NW 20:51:15 10° N visible
17 May 5.7 02:03:19 10° N 02:06:51 17° NE 02:10:24 10° ENE visible
17 May 3.2 03:46:14 10° NNW 03:51:52 67° ENE 03:57:30 10° SE visible
17 May 5.3 20:24:52 10° W 20:29:27 25° NW 20:34:05 10° N visible
18 May 5.7 01:46:12 10° N 01:49:32 16° NE 01:52:52 10° ENE visible
18 May 3.3 03:29:01 10° NNW 03:34:38 62° ENE 03:40:13 10° SE visible
19 May 5.7 01:29:03 10° N 01:32:12 15° NE 01:35:20 10° ENE visible
19 May 3.5 03:11:47 10° NNW 03:17:22 57° ENE 03:22:56 10° SE visible
20 May 5.7 01:11:57 10° N 01:14:51 14° NNE 01:17:46 10° ENE visible
20 May 3.6 02:54:35 10° NNW 03:00:07 53° ENE 03:05:39 10° SE visible
